Location: Caltech
(34.1382°N, 118.1253°W)
Time: 05:49:41
(UTC-08:00)

Cosmos 1943 Rocket - Visible Passes

Search period start: 09 February 2016 00:00
Search period end: 19 February 2016 00:00
Orbit: 811 x 845 km, 71.0° (Epoch: 09 February)

Date Brightness Start Highest point End Pass type
(mag) Time Alt. Az. Time Alt. Az. Time Alt. Az.
09 Feb 4.4 19:21:59 10° NNE 19:22:04 10° NNE 19:22:04 10° NNE visible
10 Feb 4.2 19:03:12 10° NNE 19:03:56 12° NNE 19:03:56 12° NNE visible
10 Feb 4.8 20:45:13 10° NNW 20:45:31 12° NNW 20:45:31 12° NNW visible
11 Feb 4.0 18:44:29 10° NNE 18:45:56 13° NE 18:45:56 13° NE visible
11 Feb 4.3 20:26:03 10° NNW 20:27:31 19° NNW 20:27:31 19° NNW visible
12 Feb 3.9 18:25:57 10° NNE 18:28:03 12° NE 18:28:05 12° NE visible
12 Feb 3.6 20:06:54 10° NNW 20:09:39 30° NNW 20:09:39 30° NNW visible
13 Feb 4.0 18:07:58 10° NE 18:08:48 10° NE 18:09:38 10° ENE visible
13 Feb 2.6 19:47:46 10° NNW 19:52:00 53° NNW 19:52:00 53° NNW visible
14 Feb 2.0 19:28:39 10° NNW 19:34:15 73° ENE 19:34:37 70° E visible
14 Feb 5.0 21:15:35 10° W 21:16:14 11° W 21:16:14 11° W visible
15 Feb 2.1 19:09:33 10° NNW 19:15:06 63° ENE 19:17:35 32° SE visible
15 Feb 4.8 20:55:34 10° WNW 20:58:10 13° W 20:59:15 13° WSW visible
16 Feb 2.2 18:50:28 10° NNW 18:55:57 54° ENE 19:01:12 11° SE visible
16 Feb 4.7 20:35:53 10° WNW 20:39:07 16° W 20:42:22 10° SW visible
17 Feb 2.4 18:31:25 10° N 18:36:48 47° ENE 18:42:05 10° SE visible
17 Feb 4.6 20:16:19 10° WNW 20:20:04 19° W 20:23:47 10° SW visible
18 Feb 2.6 18:12:22 10° N 18:17:38 41° ENE 18:22:48 10° SE visible
18 Feb 4.4 19:56:52 10° NW 20:01:00 22° W 20:05:06 10° SSW visible
